Flag for Germany Weather past 2 weeks in Heide, Schleswig-Holstein, Germany

Now
39 °F

Chilly.


Feels Like: 34 °F
Forecast: 54 / 59 °F
Wind: 7 mph from West

Location: Hohn

Current Time: Sep 23, 2014 at 5:02:01 AM

Latest Report: Sep 23, 2014 at 4:20 AM


Visibility: 6 mi

Pressure: 30.07 "Hg

Humidity: 93%

Dew point: 37 °F

Location of HeideLocation

Historic Weather in Heide — Graph

°F

Heide temperature yesterday

Maximum temperature yesterday: 59 °F (at 5:20 PM)
Minimum temperature yesterday: 45 °F (at 11:20 PM)
Average temperature yesterday: 53 °F

Past Weeks' High & Low Weather Summary

 TemperatureHumidityPressure
High73 °F (Sep 17, 1:20 PM)100% (Sep 12, 5:20 AM)30.27 "Hg (Sep 12, 5:20 AM)
Low41 °F (Sep 23, 12:20 AM)50% (Sep 17, 1:20 PM)29.83 "Hg (Sep 22, 4:20 AM)
Average60 °F82%30.05 "Hg
* Reported Sep 8 3:20 AM — Sep 23 3:20 AM, Heide, Weather by CustomWeather, © 2014

Note: Actual official high and low records may vary slightly from our data, if they occured in-between our weather recording intervals... More about our weather records

Advertising

Heide weather history for previous 24 hours

 ConditionsComfort  
Time TempWeatherWind HumidityBarometerVisibility
3:20 AM
Sep 23
43 °FQuite cool.6 mph87%30.09 "HgN/A
2:20 AM41 °FQuite cool.6 mph87%30.09 "HgN/A
1:20 AM41 °FQuite cool.7 mph87%30.07 "HgN/A
12:20 AM41 °FQuite cool.6 mph93%30.07 "HgN/A
11:20 PM
Sep 22
45 °FQuite cool.7 mph87%30.07 "HgN/A
10:20 PM46 °FCool.5 mph82%30.07 "HgN/A
9:20 PM48 °FCool.8 mph82%30.04 "HgN/A
8:20 PM52 °FCool.9 mph72%30.04 "Hg6 mi
7:20 PM54 °FCool.10 mph67%30.01 "HgN/A
6:20 PM57 °FPartly sunny.15 mph59%30.01 "HgN/A
5:20 PM59 °FScattered clouds.18 mph55%29.98 "HgN/A
4:20 PM57 °FPartly sunny.15 mph59%29.98 "HgN/A
3:20 PM57 °FPartly sunny.17 mph59%29.95 "HgN/A
2:20 PM57 °FPartly sunny.20 mph55%29.95 "HgN/A
1:20 PM55 °FPartly sunny.18 mph59%29.95 "HgN/A
12:20 PM55 °FPartly sunny.21 mph55%29.92 "HgN/A
11:20 AM55 °FPassing clouds.22 mph55%29.92 "HgN/A
10:20 AM54 °FPassing clouds.16 mph63%29.92 "HgN/A
9:20 AM50 °FPassing clouds.16 mph71%29.89 "HgN/A
8:20 AM48 °FPassing clouds.13 mph82%29.89 "HgN/A
7:20 AM48 °FPassing clouds.12 mph82%29.86 "HgN/A
6:20 AM52 °FPassing clouds.12 mph77%29.83 "HgN/A
5:20 AM54 °FPassing clouds.13 mph67%29.83 "HgN/A
Weather by CustomWeather, © 2014

See weather overviewHow to use our weather pages